Location: Ottawa
(45.4170°N, 75.7000°W)
Time: 08:25:38
(UTC-04:00)

Amateur Radio Satellites - All Passes

Search period start: 24 July 2014 07:55
Search period end: 25 July 2014 07:55
Location: Ottawa, 45.4170°N, 75.7000°W

Satellite Date Start Highest point End Downlink Frequencies (MHz)
Time Altitude Azimuth
KITSAT 1 24 Jul 07:57:09 08:05:14 80° 120° (ESE) 08:13:22 435.175 FM
JAS-2 24 Jul 08:04:48 08:11:05 60° 290° (WNW) 08:16:37 435.800 - 435.900 CW/SSB, 435.910 FM
MaSat-1 24 Jul 08:06:02 08:11:24 87° 62° (ENE) 08:16:36 437.345 MHz
STRAND 1 24 Jul 08:37:31 08:39:29 12° 273° (W) 08:41:28 ?
Sapphire 24 Jul 08:38:58 08:40:13 11° 24° (NNE) 08:41:28 437.095 MHz 1200 baud AX-25 AFSK
HO-68 24 Jul 08:44:38 08:48:56 17° 88° (E) 08:53:13 435.675 MHz FM
SO-67 24 Jul 08:45:23 08:48:43 44° 287° (WNW) 08:52:02 435.3500 MHz FM
Saudisat 1A 24 Jul 08:45:36 08:49:19 27° 115° (ESE) 08:53:03 436.775 MHz
PCSat 24 Jul 09:11:47 09:15:05 16° 33° (NNE) 09:18:22 145.825 MHz
ISS 24 Jul 09:28:04 09:29:15 12° 229° (SW) 09:30:26 145.800 FM
UKube-1 24 Jul 09:38:26 09:41:56 23° 94° (E) 09:45:24 145.840 MHz, 145.915 MHz
MaSat-1 24 Jul 09:45:13 09:48:02 15° 260° (W) 09:50:48 437.345 MHz
JAS-2 24 Jul 09:52:37 09:54:38 12° 313° (NW) 09:56:36 435.800 - 435.900 CW/SSB, 435.910 FM
KITSAT 1 24 Jul 09:54:20 10:01:29 33° 324° (NW) 10:08:40 435.175 FM
Sapphire 24 Jul 10:20:20 10:25:20 36° 47° (NE) 10:30:18 437.095 MHz 1200 baud AX-25 AFSK
Saudisat 1A 24 Jul 10:24:34 10:28:45 41° 313° (NW) 10:32:58 436.775 MHz
Oscar 11 24 Jul 10:28:59 10:33:06 40° 98° (E) 10:37:11 145.825 FM, Beacon 2401.500 USB
HO-68 24 Jul 10:30:26 10:37:38 86° 107° (ESE) 10:44:47 435.675 MHz FM
FUNcube-1 24 Jul 10:36:26 10:39:19 18° 92° (E) 10:42:12 145.950 - 145.970 MHz USB
PCSat 24 Jul 10:54:10 10:59:35 65° 55° (NE) 11:04:58 145.825 MHz
UKube-1 24 Jul 11:14:14 11:18:15 37° 292° (WNW) 11:22:14 145.840 MHz, 145.915 MHz
KITSAT 1 24 Jul 11:54:47 11:59:51 17° 353° (N) 12:04:55 435.175 FM
Sapphire 24 Jul 12:03:45 12:08:49 41° 247° (WSW) 12:13:51 437.095 MHz 1200 baud AX-25 AFSK
Oscar 11 24 Jul 12:05:45 12:09:02 22° 295° (WNW) 12:12:19 145.825 FM, Beacon 2401.500 USB
Saudisat 1A 24 Jul 12:08:26 12:09:32 11° 335° (NNW) 12:10:39 436.775 MHz
FUNcube-1 24 Jul 12:12:00 12:15:57 42° 289° (WNW) 12:19:53 145.950 - 145.970 MHz USB
Oscar 16 24 Jul 12:17:38 12:20:55 18° 59° (ENE) 12:24:13 437.025 USB, Beacon 2401.1428
HO-68 24 Jul 12:19:18 12:24:31 22° 307° (NW) 12:29:43 435.675 MHz FM
ITAMSAT 1 24 Jul 12:30:00 12:31:20 11° 53° (NE) 12:32:40 435.822 SSB
JAS-1B 24 Jul 12:38:16 12:44:21 20° 45° (NE) 12:50:45 435.800 - 435.900 CW/SSB
PCSat 24 Jul 12:38:34 12:42:30 21° 253° (WSW) 12:46:25 145.825 MHz
AO-27 24 Jul 12:45:54 12:48:53 16° 57° (ENE) 12:51:53 436.795 MHz FM
AO-Echo 24 Jul 12:47:28 12:50:37 16° 58° (ENE) 12:53:46 ?
Uribyol 2 24 Jul 12:48:36 12:51:49 17° 58° (ENE) 12:55:02 436.500 FM
AO-7 24 Jul 13:22:27 13:23:22 10° 33° (NNE) 13:24:16 29.400 - 29.500 MHz
Oscar 19 24 Jul 13:27:11 13:32:13 63° 72° (ENE) 13:37:17 437.125 CW, 437.150 USB
RS-15 24 Jul 13:49:44 13:59:42 40° 109° (ESE) 14:09:27 29.354 - 29.394 USB, Beacon 29.352 USB
KITSAT 1 24 Jul 13:52:45 13:58:49 22° 23° (NNE) 14:04:51 435.175 FM
Oscar 16 24 Jul 13:54:36 13:59:43 72° 257° (WSW) 14:04:51 437.025 USB, Beacon 2401.1428
TMSAT-1 24 Jul 13:56:58 14:00:43 20° 60° (ENE) 14:04:28 436.925 FM
SO-50 24 Jul 14:00:45 14:05:00 45° 119° (ESE) 14:09:21 436.795 FM
ITAMSAT 1 24 Jul 14:04:41 14:09:52 67° 72° (ENE) 14:15:04 435.822 SSB
Gurwin Techsat 1B 24 Jul 14:16:37 14:21:28 37° 67° (ENE) 14:26:20 435.225 FM
AO-27 24 Jul 14:22:29 14:27:43 85° 256° (WSW) 14:32:59 436.795 MHz FM
AO-Echo 24 Jul 14:23:22 14:28:40 85° 256° (WSW) 14:34:02 ?
JAS-1B 24 Jul 14:24:20 14:32:55 66° 68° (ENE) 14:42:35 435.800 - 435.900 CW/SSB
Uribyol 2 24 Jul 14:25:28 14:30:41 78° 256° (WSW) 14:35:55 436.500 FM
Uosat F 24 Jul 14:41:19 14:43:19 12° 55° (NE) 14:45:19 435.120 FM
UOSAT-12 24 Jul 14:52:36 14:54:28 12° 108° (ESE) 14:56:21 437.025 FM, 437.400 FM
AO-7 24 Jul 15:06:19 15:13:43 37° 56° (ENE) 15:21:08 29.400 - 29.500 MHz
Oscar 19 24 Jul 15:08:39 15:12:01 18° 270° (W) 15:15:24 437.125 CW, 437.150 USB
Saudisat 1A 24 Jul 15:31:51 15:33:11 11° 25° (NNE) 15:34:32 436.775 MHz
TMSAT-1 24 Jul 15:34:53 15:40:08 65° 258° (WSW) 15:45:27 436.925 FM
SO-50 24 Jul 15:41:50 15:45:44 28° 319° (NW) 15:49:44 436.795 FM
ITAMSAT 1 24 Jul 15:46:29 15:49:51 17° 270° (W) 15:53:13 435.822 SSB
KITSAT 1 24 Jul 15:48:09 15:56:08 58° 49° (NE) 16:04:03 435.175 FM
Gurwin Techsat 1B 24 Jul 15:56:46 16:01:28 32° 265° (W) 16:06:13 435.225 FM
RS-15 24 Jul 16:00:26 16:11:27 67° 312° (NW) 16:22:22 29.354 - 29.394 USB, Beacon 29.352 USB
AO-Echo 24 Jul 16:06:21 16:08:13 12° 274° (W) 16:10:05 ?
AO-27 24 Jul 16:06:24 16:08:00 11° 273° (W) 16:09:37 436.795 MHz FM
JAS-1B 24 Jul 16:16:14 16:23:58 35° 270° (W) 16:32:38 435.800 - 435.900 CW/SSB
Uosat F 24 Jul 16:16:14 16:21:17 79° 74° (ENE) 16:26:21 435.120 FM
UOSAT-12 24 Jul 16:29:16 16:33:53 88° 305° (NW) 16:38:37 437.025 FM, 437.400 FM
JAS-2 24 Jul 16:34:52 16:39:59 20° 54° (NE) 16:44:54 435.800 - 435.900 CW/SSB, 435.910 FM
OPAL 24 Jul 16:48:03 16:52:51 42° 101° (E) 16:57:40 ?
AO-7 24 Jul 16:57:54 17:06:08 60° 257° (WSW) 17:14:25 29.400 - 29.500 MHz
Hamsat 24 Jul 17:08:11 17:11:09 19° 64° (ENE) 17:14:07 145.90 MHz
Saudisat 1A 24 Jul 17:09:41 17:13:56 43° 47° (NE) 17:18:08 436.775 MHz
KITSAT 1 24 Jul 17:43:59 17:51:15 39° 250° (WSW) 17:58:29 435.175 FM
Uosat F 24 Jul 17:58:10 18:00:40 14° 271° (W) 18:03:11 435.120 FM
UOSAT-12 24 Jul 18:11:26 18:14:44 19° 326° (NNW) 18:18:04 437.025 FM, 437.400 FM
JAS-2 24 Jul 18:16:08 18:23:59 78° 73° (ENE) 18:31:27 435.800 - 435.900 CW/SSB, 435.910 FM
RS-15 24 Jul 18:16:56 18:26:18 31° 343° (NNW) 18:35:43 29.354 - 29.394 USB, Beacon 29.352 USB
Oscar 10/S400 24 Jul 18:22:20 18:27:55 11° 136° (SE) 18:33:46 145.825 - 145.975 CW/USB, Beacon 145.810 USB
OPAL 24 Jul 18:27:20 18:31:33 28° 298° (WNW) 18:35:49 ?
Hamsat 24 Jul 18:42:51 18:46:49 43° 262° (W) 18:50:50 145.90 MHz
Saudisat 1A 24 Jul 18:49:42 18:53:18 25° 246° (WSW) 18:56:53 436.775 MHz
AO-7 24 Jul 18:58:35 19:00:41 11° 277° (W) 19:02:47 29.400 - 29.500 MHz
STRAND 1 24 Jul 19:03:28 19:07:42 26° 94° (E) 19:11:54 ?
HO-68 24 Jul 19:16:31 19:21:12 19° 51° (NE) 19:25:53 435.675 MHz FM
SO-67 24 Jul 19:20:14 19:23:42 81° 77° (ENE) 19:27:12 435.3500 MHz FM
JAS-2 24 Jul 20:03:28 20:09:34 25° 270° (W) 20:15:31 435.800 - 435.900 CW/SSB, 435.910 FM
RS-15 24 Jul 20:33:35 20:42:59 31° 18° (NNE) 20:52:31 29.354 - 29.394 USB, Beacon 29.352 USB
UKube-1 24 Jul 20:36:05 20:39:47 28° 66° (ENE) 20:43:31 145.840 MHz, 145.915 MHz
STRAND 1 24 Jul 20:42:13 20:47:04 44° 292° (WNW) 20:51:52 ?
SO-50 24 Jul 20:50:22 20:53:29 17° 33° (NNE) 20:56:37 436.795 FM
HO-68 24 Jul 21:00:41 21:07:52 80° 71° (ENE) 21:15:03 435.675 MHz FM
Oscar 11 24 Jul 21:26:06 21:30:10 42° 70° (ENE) 21:34:14 145.825 FM, Beacon 2401.500 USB
FUNcube-1 24 Jul 21:35:09 21:38:26 21° 65° (ENE) 21:41:40 145.950 - 145.970 MHz USB
MaSat-1 24 Jul 22:00:45 22:03:56 23° 104° (ESE) 22:07:32 437.345 MHz
UKube-1 24 Jul 22:12:01 22:15:55 31° 263° (W) 22:19:50 145.840 MHz, 145.915 MHz
SO-50 24 Jul 22:30:04 22:34:49 77° 53° (NE) 22:39:38 436.795 FM
RS-15 24 Jul 22:46:52 22:57:50 67° 48° (NE) 23:09:09 29.354 - 29.394 USB, Beacon 29.352 USB
HO-68 24 Jul 22:51:10 22:56:19 21° 270° (W) 23:01:31 435.675 MHz FM
Oscar 11 24 Jul 23:03:25 23:06:33 20° 268° (W) 23:09:42 145.825 FM, Beacon 2401.500 USB
FUNcube-1 24 Jul 23:10:28 23:14:36 41° 262° (W) 23:18:41 145.950 - 145.970 MHz USB
UOSAT-12 24 Jul 23:17:18 23:21:17 26° 39° (NE) 23:25:14 437.025 FM, 437.400 FM
Lituanica SAT-1 24 Jul 23:35:06 23:35:44 11° 137° (SE) 23:36:22 437.275 MHz beacon
MaSat-1 24 Jul 23:37:05 23:40:59 40° 307° (NW) 23:45:29 437.345 MHz
SO-50 25 Jul 00:12:05 00:14:50 15° 250° (WSW) 00:17:36 436.795 FM
ISS 25 Jul 00:35:46 00:36:45 11° 131° (SE) 00:37:44 145.800 FM
UOSAT-12 25 Jul 00:57:07 01:01:46 57° 239° (WSW) 01:06:21 437.025 FM, 437.400 FM
RS-15 25 Jul 00:59:44 01:09:39 41° 251° (WSW) 01:19:55 29.354 - 29.394 USB, Beacon 29.352 USB
Lituanica SAT-1 25 Jul 01:06:03 01:08:08 58° 335° (NNW) 01:10:13 437.275 MHz beacon
Sapphire 25 Jul 01:06:03 01:09:42 19° 106° (ESE) 01:13:22 437.095 MHz 1200 baud AX-25 AFSK
AO-40 25 Jul 01:34:35 04:34:24 23° 133° (SE) 05:55:14 Beacon 2401.320
Oscar 19 25 Jul 01:37:29 01:41:06 19° 91° (E) 01:44:43 437.125 CW, 437.150 USB
PCSat 25 Jul 01:38:21 01:43:17 37° 112° (ESE) 01:48:14 145.825 MHz
Oscar 16 25 Jul 02:04:18 02:08:59 34° 96° (E) 02:13:39 437.025 USB, Beacon 2401.1428
ISS 25 Jul 02:09:35 02:12:55 71° 148° (SSE) 02:16:17 145.800 FM
JAS-1B 25 Jul 02:09:47 02:16:22 20° 82° (E) 02:22:24 435.800 - 435.900 CW/SSB
ITAMSAT 1 25 Jul 02:16:19 02:20:06 20° 92° (E) 02:23:50 435.822 SSB
AO-Echo 25 Jul 02:29:17 02:33:39 27° 93° (E) 02:37:53 ?
OPAL 25 Jul 02:29:18 02:32:01 15° 55° (NE) 02:34:45 ?
Gurwin Techsat 1B 25 Jul 02:32:34 02:34:31 12° 87° (E) 02:36:28 435.225 FM
AO-27 25 Jul 02:33:48 02:38:19 29° 95° (E) 02:42:46 436.795 MHz FM
Uribyol 2 25 Jul 02:36:23 02:40:59 32° 96° (E) 02:45:33 436.500 FM
Lituanica SAT-1 25 Jul 02:39:39 02:41:07 16° 352° (N) 02:42:36 437.275 MHz beacon
Sapphire 25 Jul 02:47:09 02:52:32 71° 304° (NW) 02:57:58 437.095 MHz 1200 baud AX-25 AFSK
Oscar 19 25 Jul 03:15:46 03:20:51 60° 289° (WNW) 03:25:55 437.125 CW, 437.150 USB
PCSat 25 Jul 03:21:38 03:26:41 39° 312° (NW) 03:31:46 145.825 MHz
Oscar 16 25 Jul 03:43:42 03:48:18 34° 294° (WNW) 03:52:54 437.025 USB, Beacon 2401.1428
ISS 25 Jul 03:46:46 03:49:52 33° 347° (NNW) 03:52:58 145.800 FM
TMSAT-1 25 Jul 03:48:35 03:53:38 43° 98° (E) 03:58:38 436.925 FM
ITAMSAT 1 25 Jul 03:54:53 03:59:58 57° 289° (WNW) 04:05:00 435.822 SSB
JAS-1B 25 Jul 03:58:37 04:08:25 83° 104° (ESE) 04:16:57 435.800 - 435.900 CW/SSB
OPAL 25 Jul 04:05:18 04:10:15 84° 253° (WSW) 04:15:14 ?
AO-Echo 25 Jul 04:07:44 04:12:33 41° 292° (WNW) 04:17:13 ?
Gurwin Techsat 1B 25 Jul 04:09:54 04:15:16 87° 104° (ESE) 04:20:34 435.225 FM
Lituanica SAT-1 25 Jul 04:12:42 04:14:19 19° 12° (NNE) 04:15:55 437.275 MHz beacon
AO-27 25 Jul 04:13:06 04:17:55 39° 293° (WNW) 04:22:42 436.795 MHz FM
Uribyol 2 25 Jul 04:15:47 04:20:29 36° 294° (WNW) 04:25:09 436.500 FM
Uosat F 25 Jul 04:22:40 04:26:23 20° 92° (E) 04:30:05 435.120 FM
Sapphire 25 Jul 04:33:30 04:36:58 17° 326° (NW) 04:40:27 437.095 MHz 1200 baud AX-25 AFSK
AO-7 25 Jul 04:56:59 05:04:50 43° 99° (E) 05:12:35 29.400 - 29.500 MHz
PCSat 25 Jul 05:10:01 05:11:42 11° 335° (NNW) 05:13:23 145.825 MHz
ISS 25 Jul 05:24:12 05:27:12 29° 7° (N) 05:30:11 145.800 FM
TMSAT-1 25 Jul 05:28:53 05:33:22 29° 296° (WNW) 05:37:50 436.925 FM
Lituanica SAT-1 25 Jul 05:45:04 05:47:11 80° 211° (SSW) 05:49:16 437.275 MHz beacon
OPAL 25 Jul 05:49:07 05:49:54 10° 271° (W) 05:50:40 ?
JAS-1B 25 Jul 05:49:51 05:57:48 30° 307° (NW) 06:05:08 435.800 - 435.900 CW/SSB
Gurwin Techsat 1B 25 Jul 05:51:31 05:54:31 15° 303° (WNW) 05:57:30 435.225 FM
Uosat F 25 Jul 06:00:36 06:05:30 53° 290° (WNW) 06:10:21 435.120 FM
MaSat-1 25 Jul 06:16:20 06:20:04 19° 43° (NE) 06:23:46 437.345 MHz
KITSAT 1 25 Jul 06:20:17 06:26:43 27° 105° (ESE) 06:33:09 435.175 FM
STRAND 1 25 Jul 06:21:18 06:26:12 46° 69° (ENE) 06:31:07 ?
Hamsat 25 Jul 06:26:26 06:30:07 27° 95° (E) 06:33:49 145.90 MHz
AO-7 25 Jul 06:49:48 06:57:43 50° 299° (WNW) 07:05:35 29.400 - 29.500 MHz
ISS 25 Jul 07:00:55 07:04:18 73° 27° (NNE) 07:07:39 145.800 FM
JAS-2 25 Jul 07:09:53 07:16:03 55° 99° (E) 07:21:29 435.800 - 435.900 CW/SSB, 435.910 FM
